Location: Newark
(34.6283°N, 36.0776°E)
Time: 10:40:22
(UTC+00:00)

A-11 Canister half - Pass Details

Date: 24 September 2019
Orbit: 1527 x 1682 km, 47.3° (Epoch: 13 October)

Event Time Altitude Azimuth Distance (km) Brightness Sun altitude
Rises 09:17:07 0° 293° (WNW) 4,844 11.5 54.9°
Reaches altitude 10° 09:21:17 10° 278° (W) 3,879 11.2 54.9°
Maximum altitude 09:27:54 20° 235° (SW) 3,156 11.3 54.9°
Drops below altitude 10° 09:34:38 10° 193° (SSW) 3,924 11.9 54.9°
Sets 09:38:56 0° 177° (S) 4,916 12.2 54.9°
